Weather Roundup
Issued by NWS

Home | Current Version | Previous Version | Text Only | Print | Product List | Glossary On
Versions: 1 2 3 4 5 6 7 8 9 10 11 12 13 14 15 16 17 18 19 20 21 22 23 24 25 26 27 28 29 30 31 32 33 34 35 36 37 38 39 40 41 42 43 44 45 46 47 48 49 50
000
NZUS93 KARX 290210
HRRWXR

CURRENT HOURLY OBSERVATIONS ACROSS
MUCH OF THE UPPER MISSISSIPPI VALLEY
NATIONAL WEATHER SERVICE LA CROSSE WI
900 PM CDT FRI AUG 28 2015


...SOUTHEAST MINNESOTA...


CITY           SKY/WX    TMP DP  RH WIND       PRES   REMARKS
ROCHESTER      PTCLDY    58  55  90 E14       30.03R
ROCHESTER/MAYO FAIR      58  58 100 E7        30.03R
WINONA         MOCLDY    59  55  88 SE7       30.04F
AUSTIN         MOCLDY    61  55  82 E14       29.99S
ALBERT LEA     PTCLDY    61  57  88 E8        30.00R
DODGE CENTER   PTCLDY    57  55  94 E5        30.03R
PRESTON        CLOUDY    57  55  94 E14       30.04R FOG
OWATONNA       CLEAR     57  55  94 E7        30.02R
FARIBAULT      CLEAR     59  55  88 E5        30.02S
$$

...ELSEWHERE IN MINNESOTA...


CITY           SKY/WX    TMP DP  RH WIND       PRES   REMARKS
MINNEAPOLIS    PTCLDY    63  56  78 SE8       30.04R
INTNL FALLS    MOCLDY    73  66  78 SW7       29.86R
DULUTH         PTCLDY    69  60  73 SW9       29.99R
RED WING       CLEAR     61  57  88 SE5       30.03R
REDWOOD FALLS  CLEAR     62  58  86 SE7       30.01R
MANKATO        PTCLDY    61  54  77 NE5       30.02R
WORTHINGTON    CLOUDY    61  54  77 E7        30.01S
FAIRMONT       CLOUDY    61  52  72 E6        30.00R
$$

...SOUTHWEST WISCONSIN...


CITY           SKY/WX    TMP DP  RH WIND       PRES   REMARKS
LA CROSSE      LGT RAIN  59  57  93 E3        30.05S
PRAIRIE DU CHI HVY RAIN  62  60  95 NE7       30.00R
BOSCOBEL       LGT RAIN  63  61  93 NE5       30.02S
LONE ROCK      LGT RAIN  64  61  90 E13       30.04F
PLATTEVILLE    CLOUDY    64  63  97 E8        30.03R
FORT MC COY    DRIZZLE   57  56  94 SE3       30.08R
CAMP DOUGLAS   DRIZZLE   57  57 100 E8        30.08R
VIROQUA        CLOUDY    58  58 100 E10       30.07R
WIS DELLS      LGT RAIN  59  57  92 NE12      30.08R
$$

...ELSEWHERE IN WISCONSIN...


CITY           SKY/WX    TMP DP  RH WIND       PRES   REMARKS
MILWAUKEE      LGT RAIN  65  62  90 N3        30.10R
MADISON        RAIN      64  62  93 SE6       30.08R FOG
GREEN BAY      LGT RAIN  63  61  93 SW5       30.10R
EAU CLAIRE     CLEAR     59  55  87 SE3       30.06R
BLACK RVR FLS  FAIR      58  58 100 E3        30.06S
MEDFORD        CLOUDY    59  57  94 SW9       30.10R
WAUSAU         CLOUDY    63  60  90 SW8       30.09R
WIS RAPIDS     CLOUDY    59  56  89 S5        30.12R
MARSHFIELD     CLOUDY    60  55  83 S6        30.10R
RICE LAKE      CLOUDY    64  58  81 S10       30.08R
$$

...NORTHEAST IOWA...


CITY           SKY/WX    TMP DP  RH WIND       PRES   REMARKS
DECORAH        LGT RAIN  59  59 100 NE9       30.00S
MASON CITY     CLOUDY    59  58  96 NE14      29.98R FOG
CHARLES CITY   LGT RAIN  59  59 100 NE13      29.97R
OELWEIN        LGT RAIN  64  63  94 SE13G20   29.95S
$$

...ELSEWHERE IN IOWA...


CITY           SKY/WX    TMP DP  RH WIND       PRES   REMARKS
DES MOINES     CLOUDY    73  67  81 SE5       29.89R
IOWA CITY      HVY RAIN  67  66  97 E9        29.99R FOG
FORT DODGE     CLOUDY    61  57  88 N8        29.94R
$$

...NORTHERN ILLINOIS...


CITY           SKY/WX    TMP DP  RH WIND       PRES   REMARKS
CHICAGO-OHARE  CLOUDY    70  61  73 E6        30.08R
CHICAGO-MIDWAY CLOUDY    73  62  68 E7        30.07R
MOLINE         CLOUDY    69  62  78 CALM      29.99R
ROCKFORD       CLOUDY    68  60  75 E10       30.06S
PEORIA         CLOUDY    73  59  61 SE7       30.00F
$$

NOTE: "FAIR" INDICATES FEW OR NO CLOUDS BELOW 12,000 FEET WITH NO
SIGNIFICANT WEATHER AND/OR OBSTRUCTIONS TO VISIBILITY. WIND
SPEEDS ARE IN MILES-PER-HOUR.



USA.gov is the U.S. government's official web portal to all federal, state and local government web resources and services.